KD5UMO-1 Weather Reports


Display with metric or nautical units.
time (UTC)temp
F
wind
direction
speed
MPH
gust
MPH
rain 1hr
in
rain 24hr
in
rain mn
in
humidity
%
barometer
mb
20210922073430 64 344 1.0 4.0 0.00 0.00 0.00 52 1023.4
20210922072830 65 344 3.0 3.0 0.00 0.00 0.00 52 1023.4
20210922072559 65 344 2.0 3.0 0.00 0.00 0.00 52 1023.5
20210922072231 65 344 0.0 3.0 0.00 0.00 0.00 51 1023.4
20210922071630 65 344 3.0 5.0 0.00 0.00 0.00 51 1023.4
20210922071559 65 344 3.0 4.0 0.00 0.00 0.00 51 1023.4
20210922071030 65 346 1.0 3.0 0.00 0.00 0.00 51 1023.4
20210922070558 66 345 2.0 3.0 0.00 0.00 0.00 50 1023.3
20210922070431 66 345 2.0 5.0 0.00 0.00 0.00 50 1023.5
20210922070059 66 360 1.0 3.0 0.00 0.00 0.00 50 1023.5
20210922065831 66 360 3.0 3.0 0.00 0.00 0.00 50 1023.4
20210922065559 66 5 1.0 3.0 0.00 0.00 0.00 49 1023.4
20210922065231 66 11 3.0 4.0 0.00 0.00 0.00 49 1023.6
20210922065059 66 327 0.0 3.0 0.00 0.00 0.00 49 1023.4
20210922064630 66 9 3.0 3.0 0.00 0.00 0.00 49 1023.4
20210922064558 66 15 3.0 3.0 0.00 0.00 0.00 49 1023.5
20210922064030 66 21 1.0 3.0 0.00 0.00 0.00 49 1023.5
20210922063600 66 18 1.0 3.0 0.00 0.00 0.00 48 1023.5
20210922063433 66 17 3.0 3.0 0.00 0.00 0.00 48 1023.5
20210922063100 67 15 0.0 3.0 0.00 0.00 0.00 48 1023.4
20210922062832 67 17 0.0 1.0 0.00 0.00 0.00 48 1023.3
20210922062601 67 15 1.0 3.0 0.00 0.00 0.00 48 1023.4
20210922062232 67 335 2.0 6.0 0.00 0.00 0.00 48 1023.4
20210922062059 67 5 3.0 5.0 0.00 0.00 0.00 48 1023.5
20210922061632 67 11 2.0 3.0 0.00 0.00 0.00 47 1023.4
20210922061559 67 10 3.0 5.0 0.00 0.00 0.00 47 1023.4
20210922061032 67 19 3.0 5.0 0.00 0.00 0.00 47 1023.3
20210922060559 68 5 4.0 4.0 0.00 0.00 0.00 47 1023.3
20210922060434 68 16 1.0 3.0 0.00 0.00 0.00 47 1023.5
20210922060100 68 360 3.0 4.0 0.00 0.00 0.00 46 1023.3
20210922055832 68 19 1.0 3.0 0.00 0.00 0.00 46 1023.4
20210922055601 68 23 1.0 2.0 0.00 0.00 0.00 46 1023.4
20210922055233 68 5 2.0 4.0 0.00 0.00 0.00 46 1023.4
20210922055101 68 14 1.0 6.0 0.00 0.00 0.00 46 1023.3
20210922054634 68 15 1.0 5.0 0.00 0.00 0.00 46 1023.4
20210922054600 68 17 1.0 2.0 0.00 0.00 0.00 46 1023.4
20210922054032 69 360 5.0 5.0 0.00 0.00 0.00 45 1023.3
20210922053600 69 355 3.0 5.0 0.00 0.00 0.00 45 1023.3
20210922053432 69 11 3.0 6.0 0.00 0.00 0.00 45 1023.1
20210922053101 69 13 4.0 9.0 0.00 0.00 0.00 45 1023.2
20210922052833 69 24 2.0 3.0 0.00 0.00 0.00 44 1023.1
20210922052601 69 19 0.0 2.0 0.00 0.00 0.00 44 1023.0
20210922052232 69 360 3.0 5.0 0.00 0.00 0.00 44 1023.2
20210922052100 69 30 6.0 6.0 0.00 0.00 0.00 44 1023.0
20210922051634 69 9 1.0 6.0 0.00 0.00 0.00 44 1022.9
20210922051600 69 40 3.0 4.0 0.00 0.00 0.00 44 1022.9
20210922051035 70 32 1.0 5.0 0.00 0.00 0.00 44 1022.8
20210922050600 70 11 3.0 8.0 0.00 0.00 0.00 43 1022.8
20210922050434 70 35 3.0 4.0 0.00 0.00 0.00 44 1022.9
20210922050101 70 45 2.0 3.0 0.00 0.00 0.00 43 1022.9
20210922045833 70 38 3.0 4.0 0.00 0.00 0.00 43 1022.9
20210922045600 70 21 1.0 5.0 0.00 0.00 0.00 43 1022.9
20210922045233 70 26 1.0 5.0 0.00 0.00 0.00 43 1022.9
20210922045101 70 23 5.0 5.0 0.00 0.00 0.00 43 1022.9
20210922044633 71 17 3.0 5.0 0.00 0.00 0.00 42 1022.9
20210922044601 71 360 2.0 5.0 0.00 0.00 0.00 43 1022.9
20210922044033 71 26 3.0 4.0 0.00 0.00 0.00 42 1022.8
20210922043600 71 355 5.0 5.0 0.00 0.00 0.00 42 1022.8
20210922043433 71 355 5.0 7.0 0.00 0.00 0.00 42 1022.8
20210922043101 71 10 3.0 3.0 0.00 0.00 0.00 41 1022.6
20210922042832 71 17 6.0 8.0 0.00 0.00 0.00 41 1022.7
20210922042601 71 32 6.0 6.0 0.00 0.00 0.00 41 1022.6
20210922042233 72 360 2.0 5.0 0.00 0.00 0.00 41 1022.8
20210922042101 72 15 2.0 5.0 0.00 0.00 0.00 41 1022.8
20210922041633 72 5 6.0 9.0 0.00 0.00 0.00 41 1022.8
20210922041601 72 355 8.0 10.0 0.00 0.00 0.00 41 1022.6
20210922041034 72 360 4.0 8.0 0.00 0.00 0.00 41 1022.5
20210922040601 72 337 4.0 8.0 0.00 0.00 0.00 41 1022.5
20210922040434 72 19 9.0 13.0 0.00 0.00 0.00 41 1022.6
20210922040100 72 36 8.0 8.0 0.00 0.00 0.00 41 1022.5
20210922035833 72 9 2.0 8.0 0.00 0.00 0.00 41 1022.5
20210922035600 72 15 5.0 5.0 0.00 0.00 0.00 41 1022.5
20210922035233 72 11 2.0 5.0 0.00 0.00 0.00 41 1022.5
20210922035102 72 20 6.0 6.0 0.00 0.00 0.00 41 1022.4
20210922034634 72 350 1.0 4.0 0.00 0.00 0.00 41 1022.4
20210922034601 72 360 2.0 4.0 0.00 0.00 0.00 41 1022.6
20210922034032 72 355 3.0 6.0 0.00 0.00 0.00 41 1022.4
20210922033559 72 10 2.0 6.0 0.00 0.00 0.00 41 1022.4
20210922033433 72 18 7.0 10.0 0.00 0.00 0.00 41 1022.4
20210922032834 72 355 3.0 3.0 0.00 0.00 0.00 40 1022.2
20210922032600 73 18 4.0 5.0 0.00 0.00 0.00 40 1022.3
20210922032233 73 28 6.0 10.0 0.00 0.00 0.00 40 1022.3
20210922032103 73 13 2.0 6.0 0.00 0.00 0.00 40 1022.3
20210922031633 73 21 2.0 4.0 0.00 0.00 0.00 40 1022.3
20210922031603 73 31 3.0 6.0 0.00 0.00 0.00 40 1022.3
20210922031034 73 9 7.0 8.0 0.00 0.00 0.00 39 1022.1
20210922030601 73 343 3.0 8.0 0.00 0.00 0.00 39 1022.1
20210922030434 73 329 4.0 5.0 0.00 0.00 0.00 39 1022.2
20210922030101 73 314 4.0 9.0 0.00 0.00 0.00 39 1022.0
20210922025834 74 346 3.0 6.0 0.00 0.00 0.00 39 1022.1
20210922025601 74 320 3.0 8.0 0.00 0.00 0.00 39 1022.0
20210922025233 74 21 3.0 5.0 0.00 0.00 0.00 39 1022.0
20210922025101 74 9 1.0 3.0 0.00 0.00 0.00 39 1022.0
20210922024633 74 22 5.0 10.0 0.00 0.00 0.00 39 1021.9
20210922024601 74 14 3.0 6.0 0.00 0.00 0.00 39 1021.9
20210922024035 74 360 3.0 3.0 0.00 0.00 0.00 39 1021.7
20210922023603 74 36 1.0 8.0 0.00 0.00 0.00 39 1021.6
20210922023433 74 9 0.0 5.0 0.00 0.00 0.00 40 1021.6
20210922023101 74 335 2.0 6.0 0.00 0.00 0.00 40 1021.6
20210922022833 74 9 2.0 3.0 0.00 0.00 0.00 39 1021.5
20210922022600 74 32 4.0 5.0 0.00 0.00 0.00 40 1021.4
20210922022235 74 13 1.0 5.0 0.00 0.00 0.00 39 1021.3
20210922021634 75 355 3.0 3.0 0.00 0.00 0.00 39 1021.1
20210922021601 75 355 2.0 3.0 0.00 0.00 0.00 39 1021.1
20210922021034 75 10 3.0 3.0 0.00 0.00 0.00 38 1020.9
20210922020600 75 345 3.0 8.0 0.00 0.00 0.00 38 1020.8
20210922020434 75 355 2.0 3.0 0.00 0.00 0.00 38 1020.8
20210922020101 75 347 4.0 5.0 0.00 0.00 0.00 38 1020.7
20210922015833 76 355 4.0 4.0 0.00 0.00 0.00 38 1020.8
20210922015601 76 315 9.0 11.0 0.00 0.00 0.00 38 1020.7
20210922015233 76 346 5.0 6.0 0.00 0.00 0.00 38 1020.7
20210922015101 76 329 5.0 9.0 0.00 0.00 0.00 39 1020.7
20210922014633 75 355 10.0 12.0 0.00 0.00 0.00 39 1020.5
20210922014602 75 333 6.0 9.0 0.00 0.00 0.00 39 1020.6
20210922014035 75 355 3.0 9.0 0.00 0.00 0.00 40 1020.3
20210922013601 76 12 1.0 3.0 0.00 0.00 0.00 40 1020.3
20210922013434 76 5 1.0 4.0 0.00 0.00 0.00 40 1020.2
20210922013100 76 355 3.0 4.0 0.00 0.00 0.00 40 1020.1
20210922012834 76 355 1.0 6.0 0.00 0.00 0.00 40 1020.1
20210922012600 76 355 3.0 4.0 0.00 0.00 0.00 40 1020.1
20210922012233 76 355 3.0 5.0 0.00 0.00 0.00 40 1020.0
20210922012100 76 355 3.0 5.0 0.00 0.00 0.00 40 1020.0
20210922011634 76 360 3.0 4.0 0.00 0.00 0.00 39 1019.9
20210922011602 76 360 2.0 4.0 0.00 0.00 0.00 39 1019.9
20210922011034 76 348 0.0 3.0 0.00 0.00 0.00 39 1019.9
20210922010601 77 351 2.0 3.0 0.00 0.00 0.00 38 1019.8
20210922010434 77 350 3.0 6.0 0.00 0.00 0.00 38 1019.8
20210922010104 77 355 2.0 3.0 0.00 0.00 0.00 38 1019.7
20210922005833 77 355 2.0 6.0 0.00 0.00 0.00 38 1019.7
20210922005603 77 349 4.0 4.0 0.00 0.00 0.00 38 1019.6
20210922005234 77 355 3.0 5.0 0.00 0.00 0.00 37 1019.5
20210922005100 77 347 3.0 4.0 0.00 0.00 0.00 37 1019.5
20210922004633 78 5 2.0 5.0 0.00 0.00 0.00 37 1019.5
20210922004601 78 360 3.0 3.0 0.00 0.00 0.00 37 1019.5
20210922004033 78 342 3.0 6.0 0.00 0.00 0.00 36 1019.5
20210922003600 78 346 3.0 3.0 0.00 0.00 0.00 36 1019.3
20210922003434 78 348 12.0 12.0 0.00 0.00 0.00 36 1019.4
20210922003101 78 9 3.0 5.0 0.00 0.00 0.00 35 1019.3
20210922002833 78 355 4.0 8.0 0.00 0.00 0.00 35 1019.3
20210922002600 79 325 6.0 6.0 0.00 0.00 0.00 35 1019.3
20210922002233 79 13 9.0 9.0 0.00 0.00 0.00 35 1019.2
20210922002100 79 5 5.0 8.0 0.00 0.00 0.00 35 1019.2
20210922001633 79 319 3.0 4.0 0.00 0.00 0.00 35 1019.1
20210922001600 79 355 2.0 6.0 0.00 0.00 0.00 35 1019.2
20210922001033 79 360 3.0 8.0 0.00 0.00 0.00 35 1019.2
20210922000600 80 329 8.0 12.0 0.00 0.00 0.00 35 1019.2
20210922000433 80 333 8.0 10.0 0.00 0.00 0.00 35 1019.1
20210922000100 80 360 8.0 11.0 0.00 0.00 0.00 35 1019.1
20210921235834 80 340 10.0 12.0 0.00 0.00 0.00 35 1019.0
20210921235600 80 355 8.0 14.0 0.00 0.00 0.00 36 1019.0
20210921235233 80 344 9.0 10.0 0.00 0.00 0.00 36 1018.8
20210921235100 80 355 11.0 12.0 0.00 0.00 0.00 35 1018.8
20210921234634 80 349 4.0 7.0 0.00 0.00 0.00 36 1018.8
20210921234601 80 348 1.0 3.0 0.00 0.00 0.00 36 1018.8
20210921234035 81 355 6.0 10.0 0.00 0.00 0.00 35 1018.7
20210921233600 81 346 8.0 10.0 0.00 0.00 0.00 35 1018.6
20210921233434 81 342 2.0 11.0 0.00 0.00 0.00 35 1018.5
20210921232833 81 46 9.0 10.0 0.00 0.00 0.00 36 1018.6
20210921232600 81 15 3.0 4.0 0.00 0.00 0.00 36 1018.5
20210921232233 81 349 7.0 17.0 0.00 0.00 0.00 36 1018.3
20210921232102 81 346 5.0 12.0 0.00 0.00 0.00 36 1018.3
20210921231634 82 350 1.0 13.0 0.00 0.00 0.00 35 1018.4
20210921231602 82 38 4.0 8.0 0.00 0.00 0.00 35 1018.3
20210921231034 82 5 5.0 14.0 0.00 0.00 0.00 35 1018.2
20210921230433 82 38 5.0 12.0 0.00 0.00 0.00 36 1018.2
20210921230101 83 349 11.0 13.0 0.00 0.00 0.00 36 1018.2
20210921225834 83 27 5.0 11.0 0.00 0.00 0.00 35 1018.2
20210921225600 83 360 13.0 13.0 0.00 0.00 0.00 36 1018.2
20210921225235 83 341 4.0 8.0 0.00 0.00 0.00 36 1018.0
20210921225100 83 323 5.0 14.0 0.00 0.00 0.00 36 1018.1
20210921224601 83 333 5.0 14.0 0.00 0.00 0.00 37 1017.9
20210921224103 83 355 8.0 10.0 0.00 0.00 0.00 36 1017.8
20210921223604 83 344 6.0 11.0 0.00 0.00 0.00 36 1017.8
20210921223533 83 9 14.0 15.0 0.00 0.00 0.00 36 1017.9
20210921223005 83 17 8.0 14.0 0.00 0.00 0.00 37 1017.7
20210921222534 84 340 4.0 10.0 0.00 0.00 0.00 37 1017.7
20210921222405 84 38 6.0 14.0 0.00 0.00 0.00 37 1017.6
20210921222031 84 5 10.0 13.0 0.00 0.00 0.00 37 1017.6
20210921221806 84 315 10.0 16.0 0.00 0.00 0.00 37 1017.7
20210921221533 84 328 8.0 10.0 0.00 0.00 0.00 38 1017.6
20210921221204 84 14 2.0 11.0 0.00 0.00 0.00 36 1017.6
20210921221031 84 355 6.0 14.0 0.00 0.00 0.00 37 1017.7
20210921220605 84 9 10.0 10.0 0.00 0.00 0.00 37 1017.8
20210921220532 84 355 3.0 16.0 0.00 0.00 0.00 37 1017.7
20210921220004 84 5 5.0 15.0 0.00 0.00 0.00 39 1017.6
20210921215532 84 295 8.0 13.0 0.00 0.00 0.00 39 1017.6
20210921215404 84 37 8.0 10.0 0.00 0.00 0.00 39 1017.5
20210921215032 84 24 10.0 13.0 0.00 0.00 0.00 38 1017.6
20210921214805 84 360 10.0 12.0 0.00 0.00 0.00 38 1017.5
20210921214533 84 288 3.0 9.0 0.00 0.00 0.00 39 1017.6
20210921214204 84 344 10.0 10.0 0.00 0.00 0.00 39 1017.6
20210921214032 84 332 15.0 15.0 0.00 0.00 0.00 40 1017.6
20210921213604 84 334 2.0 8.0 0.00 0.00 0.00 40 1017.6
20210921213533 84 360 3.0 9.0 0.00 0.00 0.00 40 1017.6
20210921213005 84 349 13.0 13.0 0.00 0.00 0.00 39 1017.5
20210921212533 84 330 3.0 10.0 0.00 0.00 0.00 40 1017.6
20210921212406 84 9 9.0 9.0 0.00 0.00 0.00 40 1017.5
20210921212032 85 317 5.0 13.0 0.00 0.00 0.00 40 1017.5
20210921211804 84 5 6.0 6.0 0.00 0.00 0.00 40 1017.5
20210921211532 85 302 12.0 17.0 0.00 0.00 0.00 39 1017.4
20210921211204 85 348 8.0 12.0 0.00 0.00 0.00 40 1017.4
20210921211031 85 42 10.0 13.0 0.00 0.00 0.00 40 1017.4
20210921210606 84 18 4.0 5.0 0.00 0.00 0.00 41 1017.3
20210921210533 84 41 1.0 10.0 0.00 0.00 0.00 40 1017.3
20210921210005 84 344 6.0 13.0 0.00 0.00 0.00 41 1017.3
20210921205532 84 340 10.0 17.0 0.00 0.00 0.00 41 1017.3
20210921205405 84 323 16.0 17.0 0.00 0.00 0.00 41 1017.3
20210921205032 85 326 10.0 16.0 0.00 0.00 0.00 42 1017.4
20210921204804 85 342 15.0 16.0 0.00 0.00 0.00 42 1017.4
20210921204533 85 334 3.0 11.0 0.00 0.00 0.00 42 1017.4
20210921204204 85 349 8.0 11.0 0.00 0.00 0.00 41 1017.4
20210921204032 85 44 3.0 4.0 0.00 0.00 0.00 42 1017.4
20210921203605 85 350 8.0 17.0 0.00 0.00 0.00 42 1017.4
20210921203533 85 329 11.0 16.0 0.00 0.00 0.00 41 1017.4
20210921203004 85 327 8.0 10.0 0.00 0.00 0.00 42 1017.3
20210921202534 85 355 8.0 9.0 0.00 0.00 0.00 43 1017.1
20210921202405 85 328 5.0 6.0 0.00 0.00 0.00 43 1017.1
20210921202032 85 28 5.0 8.0 0.00 0.00 0.00 43 1017.2
20210921201804 84 29 13.0 13.0 0.00 0.00 0.00 44 1017.2
20210921201533 84 342 8.0 10.0 0.00 0.00 0.00 42 1017.2
20210921201206 84 355 5.0 11.0 0.00 0.00 0.00 43 1017.2
20210921201032 84 355 3.0 10.0 0.00 0.00 0.00 42 1017.2
20210921200604 84 61 5.0 13.0 0.00 0.00 0.00 42 1017.2
20210921200531 84 348 3.0 10.0 0.00 0.00 0.00 41 1017.2
20210921200004 84 21 7.0 11.0 0.00 0.00 0.00 40 1017.2
20210921195532 84 5 8.0 12.0 0.00 0.00 0.00 42 1017.2
20210921195405 84 56 4.0 18.0 0.00 0.00 0.00 41 1017.2
20210921195033 84 355 11.0 11.0 0.00 0.00 0.00 42 1017.2
20210921194804 84 38 5.0 6.0 0.00 0.00 0.00 42 1017.1
20210921194533 84 346 5.0 13.0 0.00 0.00 0.00 42 1017.1
20210921194205 84 350 9.0 12.0 0.00 0.00 0.00 42 1017.2
20210921194032 85 10 14.0 14.0 0.00 0.00 0.00 42 1017.2
20210921193604 85 21 7.0 9.0 0.00 0.00 0.00 43 1017.2
20210921193531 84 349 2.0 14.0 0.00 0.00 0.00 43 1017.2
20210921193004 84 34 8.0 13.0 0.00 0.00 0.00 43 1017.3
20210921192531 84 9 10.0 14.0 0.00 0.00 0.00 43 1017.4
20210921192404 84 310 5.0 11.0 0.00 0.00 0.00 44 1017.4
20210921192033 84 13 9.0 13.0 0.00 0.00 0.00 45 1017.4
20210921191805 84 315 10.0 13.0 0.00 0.00 0.00 45 1017.5
20210921191533 84 355 11.0 11.0 0.00 0.00 0.00 44 1017.5
20210921191204 84 360 10.0 13.0 0.00 0.00 0.00 45 1017.5
20210921191032 84 355 8.0 12.0 0.00 0.00 0.00 45 1017.4
20210921190605 84 314 6.0 11.0 0.00 0.00 0.00 44 1017.4
20210921190533 84 331 9.0 9.0 0.00 0.00 0.00 45 1017.4
20210921190006 84 342 10.0 15.0 0.00 0.00 0.00 44 1017.4
20210921185532 84 321 8.0 12.0 0.00 0.00 0.00 44 1017.5
20210921185405 84 326 5.0 10.0 0.00 0.00 0.00 45 1017.5
20210921185033 84 331 6.0 11.0 0.00 0.00 0.00 45 1017.6
20210921184805 84 346 4.0 10.0 0.00 0.00 0.00 45 1017.6
20210921184533 84 340 5.0 10.0 0.00 0.00 0.00 47 1017.6
20210921184205 84 355 8.0 9.0 0.00 0.00 0.00 46 1017.5
20210921183604 83 38 5.0 10.0 0.00 0.00 0.00 47 1017.5
20210921183532 83 322 6.0 15.0 0.00 0.00 0.00 47 1017.5
20210921183004 83 306 8.0 13.0 0.00 0.00 0.00 48 1017.6
20210921182531 83 349 8.0 10.0 0.00 0.00 0.00 49 1017.6
20210921182406 83 15 2.0 10.0 0.00 0.00 0.00 49 1017.5
20210921182032 83 17 14.0 15.0 0.00 0.00 0.00 49 1017.6
20210921181807 83 346 4.0 8.0 0.00 0.00 0.00 51 1017.5
20210921181534 82 346 11.0 11.0 0.00 0.00 0.00 51 1017.6
20210921181206 82 355 3.0 11.0 0.00 0.00 0.00 51 1017.5
20210921180605 82 316 3.0 14.0 0.00 0.00 0.00 54 1017.5
20210921180005 81 325 5.0 9.0 0.00 0.00 0.00 54 1017.6
20210921175532 81 58 9.0 14.0 0.00 0.00 0.00 54 1017.6
20210921175405 81 355 5.0 12.0 0.00 0.00 0.00 54 1017.6
20210921175033 81 349 4.0 9.0 0.00 0.00 0.00 54 1017.6
20210921174805 81 9 3.0 5.0 0.00 0.00 0.00 55 1017.5
20210921174532 80 323 4.0 8.0 0.00 0.00 0.00 56 1017.5
20210921174205 80 36 10.0 10.0 0.00 0.00 0.00 56 1017.5
20210921174032 80 314 3.0 11.0 0.00 0.00 0.00 56 1017.4
20210921173604 80 360 1.0 4.0 0.00 0.00 0.00 56 1017.5
20210921173533 80 5 5.0 6.0 0.00 0.00 0.00 56 1017.5
20210921173005 80 49 5.0 8.0 0.00 0.00 0.00 57 1017.5
20210921172532 80 331 6.0 7.0 0.00 0.00 0.00 56 1017.5
20210921172406 80 360 5.0 5.0 0.00 0.00 0.00 57 1017.4
20210921172033 80 9 4.0 6.0 0.00 0.00 0.00 56 1017.5
20210921171804 80 360 10.0 12.0 0.00 0.00 0.00 56 1017.5
20210921171532 80 315 4.0 11.0 0.00 0.00 0.00 56 1017.4
20210921171204 80 5 11.0 13.0 0.00 0.00 0.00 56 1017.5
20210921171032 80 9 5.0 8.0 0.00 0.00 0.00 56 1017.5
20210921170606 80 323 3.0 8.0 0.00 0.00 0.00 57 1017.5
20210921170532 79 22 8.0 10.0 0.00 0.00 0.00 57 1017.6
20210921170007 79 355 4.0 9.0 0.00 0.00 0.00 57 1017.5
20210921165533 79 49 4.0 11.0 0.00 0.00 0.00 57 1017.7
20210921165405 79 360 4.0 10.0 0.00 0.00 0.00 57 1017.7
20210921165033 79 346 6.0 10.0 0.00 0.00 0.00 58 1017.6
20210921164805 79 309 10.0 10.0 0.00 0.00 0.00 58 1017.6
20210921164533 79 336 3.0 9.0 0.00 0.00 0.00 58 1017.7
20210921164205 79 360 3.0 10.0 0.00 0.00 0.00 58 1017.7
20210921164032 78 339 11.0 12.0 0.00 0.00 0.00 59 1017.7
20210921163606 78 321 9.0 10.0 0.00 0.00 0.00 59 1017.6
20210921163532 78 336 10.0 13.0 0.00 0.00 0.00 59 1017.6
20210921163005 78 314 3.0 6.0 0.00 0.00 0.00 58 1017.6
20210921162532 78 5 10.0 14.0 0.00 0.00 0.00 59 1017.4
20210921162405 78 351 8.0 10.0 0.00 0.00 0.00 59 1017.3
20210921162034 78 355 6.0 10.0 0.00 0.00 0.00 59 1017.4
20210921161806 78 360 4.0 9.0 0.00 0.00 0.00 59 1017.3
20210921161532 78 355 13.0 13.0 0.00 0.00 0.00 59 1017.4
20210921161205 78 343 3.0 13.0 0.00 0.00 0.00 59 1017.3
20210921161033 78 342 1.0 3.0 0.00 0.00 0.00 61 1017.3
20210921160605 78 18 11.0 11.0 0.00 0.00 0.00 61 1017.2
20210921160533 78 63 9.0 9.0 0.00 0.00 0.00 61 1017.2
20210921160005 77 15 3.0 8.0 0.00 0.00 0.00 62 1017.2
20210921155532 77 17 6.0 9.0 0.00 0.00 0.00 63 1017.2
20210921155406 77 19 4.0 9.0 0.00 0.00 0.00 63 1017.1
20210921155033 76 15 9.0 10.0 0.00 0.00 0.00 63 1017.0
20210921154805 76 360 6.0 12.0 0.00 0.00 0.00 64 1017.1
20210921154533 76 322 1.0 10.0 0.00 0.00 0.00 63 1017.0
20210921154205 76 360 4.0 8.0 0.00 0.00 0.00 64 1017.0
20210921154033 76 331 5.0 5.0 0.00 0.00 0.00 64 1016.9
20210921153605 76 17 4.0 10.0 0.00 0.00 0.00 64 1016.9
20210921153532 76 350 3.0 11.0 0.00 0.00 0.00 64 1016.8
20210921153006 75 34 3.0 6.0 0.00 0.00 0.00 63 1016.8
20210921152533 75 348 10.0 13.0 0.00 0.00 0.00 63 1016.8
20210921152406 75 360 9.0 10.0 0.00 0.00 0.00 63 1016.8
20210921152033 75 321 6.0 13.0 0.00 0.00 0.00 63 1016.8
20210921151806 75 12 4.0 8.0 0.00 0.00 0.00 64 1016.8
20210921151532 75 28 7.0 12.0 0.00 0.00 0.00 64 1016.7
20210921151206 74 339 6.0 10.0 0.00 0.00 0.00 64 1016.7
20210921150605 74 36 3.0 10.0 0.00 0.00 0.00 65 1016.6
20210921150533 74 360 4.0 9.0 0.00 0.00 0.00 65 1016.5
20210921150004 74 51 1.0 10.0 0.00 0.00 0.00 65 1016.5
20210921145532 73 21 11.0 13.0 0.00 0.00 0.00 65 1016.6
20210921145405 73 360 14.0 14.0 0.00 0.00 0.00 66 1016.6
20210921145032 73 25 4.0 6.0 0.00 0.00 0.00 67 1016.6
20210921144806 73 349 4.0 10.0 0.00 0.00 0.00 66 1016.5
20210921144533 73 46 3.0 9.0 0.00 0.00 0.00 65 1016.4
20210921144206 73 360 6.0 10.0 0.00 0.00 0.00 65 1016.4
20210921144034 74 37 4.0 10.0 0.00 0.00 0.00 65 1016.3
20210921143604 74 15 5.0 15.0 0.00 0.00 0.00 65 1016.1
20210921143532 74 9 3.0 10.0 0.00 0.00 0.00 65 1016.0
20210921143005 75 355 7.0 15.0 0.00 0.00 0.00 62 1015.9
20210921142531 75 307 9.0 13.0 0.00 0.00 0.00 61 1015.6
20210921142405 75 9 14.0 14.0 0.00 0.00 0.00 62 1015.7
20210921142034 75 9 6.0 9.0 0.00 0.00 0.00 63 1015.5
20210921141806 75 329 2.0 3.0 0.00 0.00 0.00 63 1015.5
20210921141533 75 336 2.0 6.0 0.00 0.00 0.00 63 1015.4
20210921141206 75 355 6.0 9.0 0.00 0.00 0.00 63 1015.4
20210921140605 74 48 3.0 10.0 0.00 0.00 0.00 63 1015.3
20210921140004 74 11 10.0 13.0 0.00 0.00 0.00 63 1015.1
20210921135405 74 20 7.0 7.0 0.00 0.00 0.00 65 1015.0
20210921134806 74 40 9.0 11.0 0.00 0.00 0.00 64 1014.9
20210921134205 74 30 10.0 14.0 0.00 0.00 0.00 64 1014.9
20210921133605 74 355 9.0 9.0 0.00 0.00 0.00 65 1014.9
20210921133005 74 360 13.0 13.0 0.00 0.00 0.00 66 1014.7
20210921132406 75 28 10.0 10.0 0.00 0.00 0.00 67 1014.6
20210921131805 75 53 1.0 10.0 0.00 0.00 0.00 66 1014.5
20210921131205 75 12 6.0 11.0 0.00 0.00 0.00 67 1014.4
20210921130605 75 350 9.0 9.0 0.00 0.00 0.00 67 1014.3
20210921130006 75 24 10.0 10.0 0.00 0.00 0.00 69 1014.2
20210921125406 75 350 3.0 5.0 0.00 0.00 0.00 72 1013.9
20210921124806 76 5 6.0 10.0 0.00 0.00 0.00 73 1013.7
20210921124206 76 335 8.0 11.0 0.00 0.00 0.00 75 1013.4
20210921123605 77 27 10.0 11.0 0.00 0.00 0.00 82 1013.2
20210921123005 77 334 3.0 4.0 0.00 0.00 0.00 83 1013.0
20210921122405 77 319 2.0 4.0 0.00 0.00 0.00 83 1013.0
20210921121807 77 351 4.0 5.0 0.00 0.00 0.00 83 1012.9
20210921121206 77 142 0.0 0.0 0.00 0.00 0.00 82 1012.5
20210921120607 77 142 0.0 0.0 0.00 0.00 0.00 82 1012.4
20210921120008 77 142 0.0 0.0 0.00 0.00 0.00 83 1012.2
20210921115405 77 142 0.0 0.0 0.00 0.00 0.00 83 1012.0
20210921114805 77 142 0.0 0.0 0.00 0.00 0.00 83 1011.8
20210921114205 77 142 1.0 2.0 0.00 0.00 0.00 82 1011.5
20210921113605 77 142 0.0 0.0 0.00 0.00 0.00 82 1011.7
20210921113006 78 142 0.0 0.0 0.00 0.00 0.00 81 1011.6
20210921112406 78 142 0.0 0.0 0.00 0.00 0.00 81 1011.6
20210921111806 78 142 0.0 0.0 0.00 0.00 0.00 80 1011.6
20210921111206 78 142 0.0 0.0 0.00 0.00 0.00 80 1011.4
20210921110606 78 142 0.0 0.0 0.00 0.00 0.00 80 1011.2
20210921110005 78 142 0.0 0.0 0.00 0.00 0.00 80 1011.1
20210921105405 79 142 0.0 0.0 0.00 0.00 0.00 80 1011.0
20210921104804 79 142 0.0 0.0 0.00 0.00 0.00 80 1010.9
20210921104205 79 142 0.0 0.0 0.00 0.00 0.00 78 1010.8
20210921103605 79 142 0.0 0.0 0.00 0.00 0.00 76 1010.8
20210921103006 79 142 0.0 0.0 0.00 0.00 0.00 76 1010.7
20210921102405 80 142 0.0 0.0 0.00 0.00 0.00 76 1010.6
20210921101805 80 142 0.0 0.0 0.00 0.00 0.00 76 1010.6
20210921101206 80 142 0.0 0.0 0.00 0.00 0.00 75 1010.5
20210921100605 80 142 0.0 0.0 0.00 0.00 0.00 75 1010.6
20210921100005 80 142 0.0 0.0 0.00 0.00 0.00 74 1010.5
20210921095406 80 142 0.0 0.0 0.00 0.00 0.00 73 1010.4
20210921094806 80 142 0.0 0.0 0.00 0.00 0.00 72 1010.2
20210921094206 81 142 0.0 0.0 0.00 0.00 0.00 73 1010.1
20210921093605 81 142 0.0 0.0 0.00 0.00 0.00 72 1010.0
20210921093006 81 142 0.0 2.0 0.00 0.00 0.00 72 1009.9
20210921092405 81 142 0.0 0.0 0.00 0.00 0.00 72 1009.7
20210921091805 81 138 0.0 0.0 0.00 0.00 0.00 72 1009.7
20210921091207 82 138 0.0 2.0 0.00 0.00 0.00 72 1009.6
20210921090605 82 182 0.0 0.0 0.00 0.00 0.00 71 1009.6
20210921090006 82 182 0.0 0.0 0.00 0.00 0.00 70 1009.5
20210921085406 82 182 0.0 0.0 0.00 0.00 0.00 69 1009.5
20210921084805 82 179 0.0 2.0 0.00 0.00 0.00 69 1009.4
20210921084206 82 180 0.0 1.0 0.00 0.00 0.00 69 1009.3
20210921083606 82 179 0.0 0.0 0.00 0.00 0.00 68 1009.3
20210921083006 82 178 0.0 0.0 0.00 0.00 0.00 68 1009.3
20210921082405 82 177 0.0 0.0 0.00 0.00 0.00 68 1009.2
20210921081806 82 176 0.0 0.0 0.00 0.00 0.00 68 1009.3
20210921081205 82 176 0.0 2.0 0.00 0.00 0.00 68 1009.2
20210921080606 82 184 0.0 2.0 0.00 0.00 0.00 68 1009.3
20210921080005 82 198 0.0 2.0 0.00 0.00 0.00 67 1009.3
20210921075405 82 198 0.0 0.0 0.00 0.00 0.00 67 1009.2
20210921074806 83 198 0.0 0.0 0.00 0.00 0.00 67 1009.1
20210921074205 83 200 0.0 1.0 0.00 0.00 0.00 66 1009.0
20210921073605 83 200 2.0 3.0 0.00 0.00 0.00 66 1008.9